カタログに戻る

SL-14 DEB

運用中PO
NORAD 26000·DEBRIS·🇷🇺 Russia

打ち上げ Sep 28, 1991 から Plesetsk Cosmodrome

Loading…

次のパス (今後24時間)

TLE

最新Source: Space-Track

元期: Sep 14, 2026, 11:26 UTC

1 26000U 91068K   26257.47671100  .00000059  00000-0  34081-3 0  9993
2 26000  82.7170 256.1331 0040531 288.3990 226.8400 12.45467020214851

AllMySatでSL-14 DEBをリアルタイム追跡

Download on the App Store